Location: Starhoo Observatory
(41.8578°N, 70.9669°W)
Time: 23:55:53
(UTC-04:00)

ISS - Visible Passes

Search period start: 30 May 2016 00:00
Search period end: 09 June 2016 00:00
Orbit: 402 x 404 km, 51.6° (Epoch: 30 May)

Date Brightness Start Highest point End Pass type
(mag) Time Alt. Az. Time Alt. Az. Time Alt. Az.
30 May -0.6 01:20:47 10° NW 01:23:20 20° NNE 01:25:53 10° ENE visible
30 May -3.5 02:56:51 10° NW 03:00:08 89° NE 03:03:24 10° SE visible
30 May -1.3 04:35:27 10° WSW 04:36:06 10° SW 04:36:44 10° SW visible
30 May -2.1 21:12:44 10° WSW 21:15:52 45° NNW 21:19:02 10° NE visible
30 May -0.2 22:50:44 10° NW 22:52:56 16° N 22:55:07 10° NNE visible
31 May -0.3 00:28:05 10° NNW 00:30:19 17° N 00:32:32 10° NE visible
31 May -1.6 02:04:09 10° NW 02:05:58 28° NNW 02:05:58 28° NNW visible
31 May -0.5 21:57:24 10° WNW 21:59:54 20° NNW 22:02:25 10° NE visible
31 May -0.1 23:35:15 10° NNW 23:37:15 15° N 23:39:16 10° NE visible
01 Jun -1.1 01:11:30 10° NW 01:13:34 26° N 01:13:34 26° N visible
01 Jun -0.9 21:04:05 10° W 21:06:55 26° NNW 21:09:45 10° NE visible
01 Jun -0.2 22:42:13 10° NW 22:44:11 15° N 22:46:08 10° NE visible
02 Jun -0.9 00:18:51 10° NW 00:21:31 22° NNE 00:21:52 22° NNE visible
02 Jun -0.3 21:48:59 10° NW 21:51:06 16° N 21:53:13 10° NNE visible
02 Jun -0.5 23:26:10 10° NNW 23:28:29 18° NNE 23:30:25 12° NE visible
03 Jun -0.6 01:02:13 10° NW 01:03:00 16° NW 01:03:00 16° NW visible
03 Jun -0.4 20:55:39 10° WNW 20:58:03 19° NNW 21:00:28 10° NNE visible
03 Jun -0.4 22:33:22 10° NNW 22:35:25 15° N 22:37:28 10° NE visible
04 Jun -1.3 00:09:32 10° NW 00:11:41 29° N 00:11:41 29° N visible
04 Jun -0.4 21:40:23 10° NW 21:42:20 15° N 21:44:17 10° NE visible
04 Jun -1.3 23:16:52 10° NW 23:19:37 24° NNE 23:20:26 22° NE visible
05 Jun -0.4 20:47:11 10° NW 20:49:14 15° N 20:51:17 10° NNE visible
05 Jun -0.7 22:24:11 10° NNW 22:26:36 19° NNE 22:29:01 10° ENE visible
06 Jun -1.3 00:00:14 10° NW 00:01:50 26° NW 00:01:50 26° NW visible
06 Jun -0.5 21:31:24 10° NNW 21:33:32 16° N 21:35:39 10° NE visible
06 Jun -2.2 23:07:31 10° NW 23:10:38 39° NNE 23:10:41 39° NNE visible
07 Jun -1.5 22:14:51 10° NW 22:17:41 26° NNE 22:19:35 16° ENE visible
07 Jun -1.0 23:51:05 10° WNW 23:52:11 19° WNW 23:52:11 19° WNW visible
08 Jun -1.0 21:22:09 10° NW 21:24:40 20° NNE 21:27:11 10° ENE visible
08 Jun -3.0 22:58:13 10° NW 23:01:06 66° NW 23:01:06 66° NW visible
